Location: Ocean City
(38.3360°N, 75.0850°W)
Time: 12:01:17
(UTC-05:00)

Explorer 11/Cluster Stage 4 - Pass Details

Date: 17 November 2019
Orbit: 467 x 1259 km, 28.8° (Epoch: 09 December)

Event Time Altitude Azimuth Distance (km) Brightness Sun altitude
Rises 00:02:36 0° 262° (W) 3,896 - -70.2°
Reaches altitude 10° 00:05:29 10° 254° (WSW) 3,032 - -70.1°
Maximum altitude 00:12:22 36° 191° (S) 1,835 - -69.7°
Drops below altitude 10° 00:19:43 10° 128° (SE) 3,228 - -69.2°
Sets 00:22:53 0° 121° (ESE) 4,174 - -68.9°
